Year,Month,Day,Hour,Minute,Value (Times are PST for temperature in C)
2012,09,20,00,02,12.20
2012,09,20,00,03,12.20
2012,09,20,00,05,12.20
2012,09,20,00,07,12.20
2012,09,20,00,09,12.20
2012,09,20,00,10,12.10
2012,09,20,00,11,12.10
2012,09,20,00,12,12.10
2012,09,20,00,13,12.10
2012,09,20,00,15,12.10
2012,09,20,00,16,12.00
2012,09,20,00,17,12.00
2012,09,20,00,18,11.90
2012,09,20,00,20,11.90
2012,09,20,00,21,11.90
2012,09,20,00,22,11.90
2012,09,20,00,23,11.90
2012,09,20,00,25,11.80
2012,09,20,00,26,11.80
2012,09,20,00,27,11.80
2012,09,20,00,28,11.80
2012,09,20,00,30,11.80
2012,09,20,00,31,11.80
2012,09,20,00,32,11.80
2012,09,20,00,33,11.80
2012,09,20,00,35,11.80
2012,09,20,00,36,11.70
2012,09,20,00,37,11.80
2012,09,20,00,38,11.70
2012,09,20,00,40,11.70
2012,09,20,00,41,11.80
2012,09,20,00,42,11.80
2012,09,20,00,43,11.80
2012,09,20,00,44,11.80
2012,09,20,00,45,11.80
2012,09,20,00,46,11.80
2012,09,20,00,47,11.80
2012,09,20,00,49,11.80
2012,09,20,00,50,11.90
2012,09,20,00,51,11.90
2012,09,20,00,53,11.90
2012,09,20,00,54,11.90
2012,09,20,00,55,11.90
2012,09,20,00,57,11.90
2012,09,20,00,58,11.90
2012,09,20,00,59,11.90
2012,09,20,01,00,11.90
2012,09,20,01,02,12.00
2012,09,20,01,03,12.00
2012,09,20,01,04,12.00
2012,09,20,01,06,12.00
2012,09,20,01,07,12.00
2012,09,20,01,08,12.00
2012,09,20,01,09,12.10
2012,09,20,01,10,12.10
2012,09,20,01,12,12.10
2012,09,20,01,13,12.20
2012,09,20,01,14,12.20
2012,09,20,01,15,12.20
2012,09,20,01,16,12.20
2012,09,20,01,18,12.20
2012,09,20,01,19,12.20
2012,09,20,01,20,12.20
2012,09,20,01,21,12.20
2012,09,20,01,23,12.10
2012,09,20,01,24,12.10
2012,09,20,01,25,12.10
2012,09,20,01,26,12.10
2012,09,20,01,28,12.10
2012,09,20,01,29,12.10
2012,09,20,01,30,12.10
2012,09,20,01,31,12.00
2012,09,20,01,32,12.00
2012,09,20,01,33,11.90
2012,09,20,01,34,11.90
2012,09,20,01,35,11.90
2012,09,20,01,36,11.90
2012,09,20,01,37,11.90
2012,09,20,01,38,11.90
2012,09,20,01,39,11.90
2012,09,20,01,41,11.80
2012,09,20,01,42,11.80
2012,09,20,01,43,11.80
2012,09,20,01,44,11.80
2012,09,20,01,45,11.80
2012,09,20,01,47,11.80
2012,09,20,01,48,11.70
2012,09,20,01,49,11.70
2012,09,20,01,50,11.60
2012,09,20,01,52,11.60
2012,09,20,01,53,11.40
2012,09,20,01,54,11.40
2012,09,20,01,55,11.30
2012,09,20,01,56,11.30
2012,09,20,01,57,11.30
2012,09,20,01,58,11.20
2012,09,20,01,59,11.20
2012,09,20,02,00,11.20
2012,09,20,02,01,11.20
2012,09,20,02,02,11.20
2012,09,20,02,03,11.10
2012,09,20,02,04,11.10
2012,09,20,02,05,11.10
2012,09,20,02,06,11.10
2012,09,20,02,08,11.10
2012,09,20,02,09,11.00
2012,09,20,02,10,11.00
2012,09,20,02,11,11.00
2012,09,20,02,12,10.90
2012,09,20,02,13,10.90
2012,09,20,02,14,10.90
2012,09,20,02,15,10.80
2012,09,20,02,16,10.80
2012,09,20,02,17,10.80
2012,09,20,02,18,10.80
2012,09,20,02,19,10.80
2012,09,20,02,20,10.80
2012,09,20,02,21,10.80
2012,09,20,02,23,10.80
2012,09,20,02,24,10.80
2012,09,20,02,25,10.70
2012,09,20,02,26,10.70
2012,09,20,02,28,10.70
2012,09,20,02,29,10.70
2012,09,20,02,30,10.60
2012,09,20,02,32,10.60
2012,09,20,02,33,10.60
2012,09,20,02,34,10.60
2012,09,20,02,35,10.60
2012,09,20,02,37,10.50
2012,09,20,02,38,10.40
2012,09,20,02,39,10.40
2012,09,20,02,40,10.40
2012,09,20,02,41,10.40
2012,09,20,02,42,10.40
2012,09,20,02,43,10.40
2012,09,20,02,44,10.30
2012,09,20,02,46,10.30
2012,09,20,02,47,10.30
2012,09,20,02,48,10.30
2012,09,20,02,49,10.30
2012,09,20,02,51,10.30
2012,09,20,02,52,10.30
2012,09,20,02,53,10.20
2012,09,20,02,54,10.20
2012,09,20,02,56,10.20
2012,09,20,02,57,10.20
2012,09,20,02,58,10.20
2012,09,20,02,59,10.20
2012,09,20,03,00,10.20
2012,09,20,03,01,10.20
2012,09,20,03,02,10.20
2012,09,20,03,04,10.20
2012,09,20,03,05,10.30
2012,09,20,03,06,10.30
2012,09,20,03,08,10.30
2012,09,20,03,09,10.30
2012,09,20,03,10,10.30
2012,09,20,03,11,10.30
2012,09,20,03,13,10.20
2012,09,20,03,14,10.20
2012,09,20,03,15,10.20
2012,09,20,03,16,10.20
2012,09,20,03,18,10.10
2012,09,20,03,19,10.10
2012,09,20,03,20,10.10
2012,09,20,03,21,10.10
2012,09,20,03,23,10.10
2012,09,20,03,24,10.10
2012,09,20,03,25,10.10
2012,09,20,03,26,10.10
2012,09,20,03,28,10.10
2012,09,20,03,29,10.10
2012,09,20,03,30,10.10
2012,09,20,03,31,10.10
2012,09,20,03,32,10.10
2012,09,20,03,33,10.10
2012,09,20,03,34,10.00
2012,09,20,03,35,10.10
2012,09,20,03,36,10.10
2012,09,20,03,37,10.10
2012,09,20,03,38,10.10
2012,09,20,03,39,10.10
2012,09,20,03,40,10.10
2012,09,20,03,41,10.10
2012,09,20,03,43,10.10
2012,09,20,03,44,10.00
2012,09,20,03,45,10.00
2012,09,20,03,46,10.00
2012,09,20,03,48,10.00
2012,09,20,03,49,10.00
2012,09,20,03,50,10.00
2012,09,20,03,51,10.00
2012,09,20,03,53,10.00
2012,09,20,03,54,10.00
2012,09,20,03,55,10.00
2012,09,20,03,56,10.10
2012,09,20,03,57,10.10
2012,09,20,03,58,10.10
2012,09,20,03,59,10.10
2012,09,20,04,00,10.10
2012,09,20,04,01,10.10
2012,09,20,04,02,10.10
2012,09,20,04,03,10.10
2012,09,20,04,04,10.10
2012,09,20,04,05,10.10
2012,09,20,04,07,10.10
2012,09,20,04,08,10.10
2012,09,20,04,09,10.10
2012,09,20,04,10,10.10
2012,09,20,04,11,10.10
2012,09,20,04,12,10.10
2012,09,20,04,13,10.00
2012,09,20,04,14,10.00
2012,09,20,04,15,9.90
2012,09,20,04,16,9.90
2012,09,20,04,17,9.90
2012,09,20,04,18,9.80
2012,09,20,04,19,9.80
2012,09,20,04,20,9.80
2012,09,20,04,21,9.80
2012,09,20,04,22,9.80
2012,09,20,04,23,9.80
2012,09,20,04,24,9.80
2012,09,20,04,25,9.80
2012,09,20,04,26,9.80
2012,09,20,04,27,9.80
2012,09,20,04,28,9.80
2012,09,20,04,29,9.80
2012,09,20,04,31,9.80
2012,09,20,04,32,9.80
2012,09,20,04,33,9.80
2012,09,20,04,34,9.80
2012,09,20,04,36,9.80
2012,09,20,04,37,9.70
2012,09,20,04,38,9.70
2012,09,20,04,39,9.70
2012,09,20,04,41,9.70
2012,09,20,04,42,9.70
2012,09,20,04,43,9.80
2012,09,20,04,44,9.80
2012,09,20,04,46,9.80
2012,09,20,04,47,9.80
2012,09,20,04,48,9.80
2012,09,20,04,49,9.80
2012,09,20,04,51,9.80
2012,09,20,04,52,9.80
2012,09,20,04,53,9.80
2012,09,20,04,54,9.80
2012,09,20,04,56,9.90
2012,09,20,04,57,9.90
2012,09,20,04,58,9.90
2012,09,20,04,59,9.90
2012,09,20,05,00,9.90
2012,09,20,05,02,9.90
2012,09,20,05,03,10.00
2012,09,20,05,04,10.00
2012,09,20,05,05,10.00
2012,09,20,05,06,10.10
2012,09,20,05,07,10.10
2012,09,20,05,08,10.10
2012,09,20,05,09,10.10
2012,09,20,05,10,10.10
2012,09,20,05,11,10.10
2012,09,20,05,13,10.20
2012,09,20,05,14,10.20
2012,09,20,05,15,10.30
2012,09,20,05,16,10.30
2012,09,20,05,18,10.30
2012,09,20,05,19,10.40
2012,09,20,05,20,10.40
2012,09,20,05,21,10.40
2012,09,20,05,23,10.50
2012,09,20,05,24,10.50
2012,09,20,05,25,10.50
2012,09,20,05,26,10.40
2012,09,20,05,28,10.40
2012,09,20,05,29,10.40
2012,09,20,05,30,10.40
2012,09,20,05,31,10.30
2012,09,20,05,32,10.30
2012,09,20,05,33,10.30
2012,09,20,05,34,10.30
2012,09,20,05,35,10.30
2012,09,20,05,36,10.20
2012,09,20,05,37,10.20
2012,09,20,05,38,10.20
2012,09,20,05,39,10.30
2012,09,20,05,40,10.20
2012,09,20,05,41,10.20
2012,09,20,05,42,10.20
2012,09,20,05,43,10.20
2012,09,20,05,44,10.30
2012,09,20,05,45,10.30
2012,09,20,05,46,10.40
2012,09,20,05,47,10.40
2012,09,20,05,48,10.40
2012,09,20,05,49,10.50
2012,09,20,05,50,10.40
2012,09,20,05,52,10.30
2012,09,20,05,53,10.30
2012,09,20,05,54,10.20
2012,09,20,05,55,10.20
2012,09,20,05,56,10.10
2012,09,20,05,57,10.10
2012,09,20,05,58,10.10
2012,09,20,05,59,10.00
2012,09,20,06,00,9.90
2012,09,20,06,01,9.90
2012,09,20,06,02,9.90
2012,09,20,06,03,9.90
2012,09,20,06,04,9.90
2012,09,20,06,05,10.00
2012,09,20,06,06,10.10
2012,09,20,06,07,10.20
2012,09,20,06,08,10.30
2012,09,20,06,09,10.40
2012,09,20,06,10,10.60
2012,09,20,06,11,10.60
2012,09,20,06,12,10.70
2012,09,20,06,13,10.70
2012,09,20,06,14,10.70
2012,09,20,06,15,10.70
2012,09,20,06,16,10.70
2012,09,20,06,17,10.70
2012,09,20,06,18,10.70
2012,09,20,06,19,10.60
2012,09,20,06,20,10.60
2012,09,20,06,21,10.60
2012,09,20,06,22,10.70
2012,09,20,06,23,10.60
2012,09,20,06,24,10.60
2012,09,20,06,25,10.60
2012,09,20,06,26,10.60
2012,09,20,06,27,10.60
2012,09,20,06,28,10.50
2012,09,20,06,29,10.50
2012,09,20,06,30,10.60
2012,09,20,06,31,10.60
2012,09,20,06,32,10.70
2012,09,20,06,34,10.80
2012,09,20,06,35,10.70
2012,09,20,06,36,10.60
2012,09,20,06,37,10.60
2012,09,20,06,39,10.50
2012,09,20,06,40,10.40
2012,09,20,06,41,10.40
2012,09,20,06,42,10.30
2012,09,20,06,43,10.30
2012,09,20,06,44,10.30
2012,09,20,06,45,10.30
2012,09,20,06,46,10.20
2012,09,20,06,47,10.20
2012,09,20,06,49,10.30
2012,09,20,06,50,10.30
2012,09,20,06,51,10.30
2012,09,20,06,52,10.30
2012,09,20,06,54,10.30
2012,09,20,06,55,10.20
2012,09,20,06,56,10.20
2012,09,20,06,57,10.10
2012,09,20,06,58,10.10
2012,09,20,07,00,10.10
2012,09,20,07,01,10.00
2012,09,20,07,02,9.90
2012,09,20,07,03,9.90
2012,09,20,07,05,9.80
2012,09,20,07,06,9.80
2012,09,20,07,07,9.80
2012,09,20,07,08,9.80
2012,09,20,07,10,9.80
2012,09,20,07,11,9.80
2012,09,20,07,12,9.80
2012,09,20,07,13,9.80
2012,09,20,07,14,9.80
2012,09,20,07,16,9.80
2012,09,20,07,17,9.80
2012,09,20,07,18,9.80
2012,09,20,07,19,9.80
2012,09,20,07,21,9.80
2012,09,20,07,22,9.80
2012,09,20,07,23,9.80
2012,09,20,07,24,9.80
2012,09,20,07,26,9.80
2012,09,20,07,27,9.80
2012,09,20,07,28,9.80
2012,09,20,07,30,9.80
2012,09,20,07,31,9.80
2012,09,20,07,32,9.80
2012,09,20,07,33,9.80
2012,09,20,07,34,9.70
2012,09,20,07,35,9.70
2012,09,20,07,36,9.70
2012,09,20,07,37,9.70
2012,09,20,07,38,9.60
2012,09,20,07,39,9.60
2012,09,20,07,40,9.60
2012,09,20,07,41,9.60
2012,09,20,07,42,9.60
2012,09,20,07,43,9.60
2012,09,20,07,44,9.60
2012,09,20,07,45,9.70
2012,09,20,07,46,9.70
2012,09,20,07,47,9.70
2012,09,20,07,48,9.70
2012,09,20,07,49,9.70
2012,09,20,07,50,9.70
2012,09,20,07,51,9.70
2012,09,20,07,52,9.80
2012,09,20,07,54,9.80
2012,09,20,07,55,9.80
2012,09,20,07,56,9.80
2012,09,20,07,57,9.80
2012,09,20,07,59,9.80
2012,09,20,08,00,9.80
2012,09,20,08,01,9.80
2012,09,20,08,02,9.80
2012,09,20,08,03,9.90
2012,09,20,08,04,9.90
2012,09,20,08,05,9.90
2012,09,20,08,06,9.90
2012,09,20,08,07,9.90
2012,09,20,08,08,9.90
2012,09,20,08,09,10.00
2012,09,20,08,10,10.10
2012,09,20,08,11,10.10
2012,09,20,08,12,10.10
2012,09,20,08,13,10.10
2012,09,20,08,14,10.10
2012,09,20,08,15,10.10
2012,09,20,08,17,10.10
2012,09,20,08,18,10.20
2012,09,20,08,19,10.20
2012,09,20,08,20,10.20
2012,09,20,08,21,10.20
2012,09,20,08,22,10.30
2012,09,20,08,23,10.30
2012,09,20,08,24,10.30
2012,09,20,08,25,10.30
2012,09,20,08,26,10.40
2012,09,20,08,27,10.40
2012,09,20,08,28,10.50
2012,09,20,08,29,10.60
2012,09,20,08,30,10.60
2012,09,20,08,32,10.70
2012,09,20,08,33,10.80
2012,09,20,08,34,10.80
2012,09,20,08,35,10.80
2012,09,20,08,37,10.80
2012,09,20,08,38,10.90
2012,09,20,08,39,10.90
2012,09,20,08,40,10.90
2012,09,20,08,42,10.90
2012,09,20,08,43,11.00
2012,09,20,08,44,11.10
2012,09,20,08,46,11.20
2012,09,20,08,47,11.30
2012,09,20,08,48,11.40
2012,09,20,08,49,11.60
2012,09,20,08,50,11.70
2012,09,20,08,52,11.80
2012,09,20,08,53,11.90
2012,09,20,08,54,12.10
2012,09,20,08,56,12.20
2012,09,20,08,57,12.30
2012,09,20,08,58,12.40
2012,09,20,09,00,12.40
2012,09,20,09,01,12.50
2012,09,20,09,02,12.60
2012,09,20,09,03,12.60
2012,09,20,09,05,12.70
2012,09,20,09,06,12.80
2012,09,20,09,07,12.80
2012,09,20,09,08,12.90
2012,09,20,09,09,13.10
2012,09,20,09,11,13.10
2012,09,20,09,12,13.20
2012,09,20,09,13,13.30
2012,09,20,09,14,13.30
2012,09,20,09,16,13.40
2012,09,20,09,17,13.40
2012,09,20,09,18,13.50
2012,09,20,09,20,13.60
2012,09,20,09,21,13.60
2012,09,20,09,22,13.70
2012,09,20,09,23,13.70
2012,09,20,09,25,13.80
2012,09,20,09,26,13.90
2012,09,20,09,27,13.90
2012,09,20,09,28,14.10
2012,09,20,09,29,14.10
2012,09,20,09,30,14.20
2012,09,20,09,31,14.30
2012,09,20,09,32,14.40
2012,09,20,09,33,14.60
2012,09,20,09,34,14.60
2012,09,20,09,35,14.70
2012,09,20,09,36,14.70
2012,09,20,09,37,14.80
2012,09,20,09,38,14.80
2012,09,20,09,39,14.80
2012,09,20,09,40,14.80
2012,09,20,09,41,14.90
2012,09,20,09,42,15.00
2012,09,20,09,43,15.10
2012,09,20,09,44,15.10
2012,09,20,09,45,15.20
2012,09,20,09,46,15.20
2012,09,20,09,47,15.30
2012,09,20,09,48,15.30
2012,09,20,09,49,15.30
2012,09,20,09,50,15.30
2012,09,20,09,51,15.40
2012,09,20,09,52,15.40
2012,09,20,09,54,15.40
2012,09,20,09,55,15.30
2012,09,20,09,56,15.30
2012,09,20,09,57,15.30
2012,09,20,09,58,15.30
2012,09,20,09,59,15.30
2012,09,20,10,00,15.40
2012,09,20,10,01,15.40
2012,09,20,10,02,15.50
2012,09,20,10,03,15.50
2012,09,20,10,04,15.60
2012,09,20,10,05,15.60
2012,09,20,10,06,15.60
2012,09,20,10,07,15.50
2012,09,20,10,09,15.40
2012,09,20,10,10,15.30
2012,09,20,10,11,15.30
2012,09,20,10,12,15.20
2012,09,20,10,13,15.10
2012,09,20,10,14,15.10
2012,09,20,10,15,15.10
2012,09,20,10,16,15.00
2012,09,20,10,17,15.00
2012,09,20,10,18,14.90
2012,09,20,10,19,14.90
2012,09,20,10,20,14.80
2012,09,20,10,21,14.80
2012,09,20,10,22,14.70
2012,09,20,10,23,14.60
2012,09,20,10,24,14.50
2012,09,20,10,25,14.50
2012,09,20,10,26,14.40
2012,09,20,10,27,14.40
2012,09,20,10,28,14.30
2012,09,20,10,30,14.30
2012,09,20,10,31,14.20
2012,09,20,10,32,14.20
2012,09,20,10,33,14.20
2012,09,20,10,35,14.10
2012,09,20,10,36,14.10
2012,09,20,10,37,14.10
2012,09,20,10,38,14.10
2012,09,20,10,39,14.10
2012,09,20,10,40,14.10
2012,09,20,10,41,14.10
2012,09,20,10,42,14.10
2012,09,20,10,43,14.10
2012,09,20,10,44,13.90
2012,09,20,10,45,13.90
2012,09,20,10,46,13.90
2012,09,20,10,47,13.80
2012,09,20,10,48,13.80
2012,09,20,10,49,13.80
2012,09,20,10,50,13.80
2012,09,20,10,51,13.80
2012,09,20,10,52,13.90
2012,09,20,10,53,13.90
2012,09,20,10,54,13.90
2012,09,20,10,55,13.90
2012,09,20,10,56,13.90
2012,09,20,10,57,13.90
2012,09,20,10,59,14.00
2012,09,20,11,00,14.10
2012,09,20,11,01,14.20
2012,09,20,11,02,14.30
2012,09,20,11,04,14.30
2012,09,20,11,05,14.40
2012,09,20,11,06,14.50
2012,09,20,11,07,14.60
2012,09,20,11,08,14.60
2012,09,20,11,09,14.70
2012,09,20,11,10,14.80
2012,09,20,11,11,14.80
2012,09,20,11,13,14.90
2012,09,20,11,14,15.20
2012,09,20,11,15,15.30
2012,09,20,11,16,15.30
2012,09,20,11,17,15.40
2012,09,20,11,18,15.40
2012,09,20,11,19,15.50
2012,09,20,11,20,15.60
2012,09,20,11,21,15.70
2012,09,20,11,22,15.70
2012,09,20,11,23,15.70
2012,09,20,11,24,15.80
2012,09,20,11,25,15.80
2012,09,20,11,26,15.90
2012,09,20,11,27,15.90
2012,09,20,11,28,16.00
2012,09,20,11,29,16.10
2012,09,20,11,30,16.20
2012,09,20,11,31,16.30
2012,09,20,11,32,16.40
2012,09,20,11,33,16.40
2012,09,20,11,34,16.60
2012,09,20,11,36,16.60
2012,09,20,11,37,16.80
2012,09,20,11,38,16.90
2012,09,20,11,39,17.00
2012,09,20,11,41,17.10
2012,09,20,11,42,17.20
2012,09,20,11,43,17.30
2012,09,20,11,44,17.40
2012,09,20,11,46,17.60
2012,09,20,11,47,17.80
2012,09,20,11,48,17.90
2012,09,20,11,50,17.90
2012,09,20,11,51,18.00
2012,09,20,11,52,18.10
2012,09,20,11,53,18.10
2012,09,20,11,55,18.10
2012,09,20,11,56,18.10
2012,09,20,11,57,18.10
2012,09,20,11,58,18.10
2012,09,20,12,00,18.10
2012,09,20,12,01,18.10
2012,09,20,12,02,18.10
2012,09,20,12,03,18.10
2012,09,20,12,05,18.20
2012,09,20,12,06,18.20
2012,09,20,12,07,18.20
2012,09,20,12,09,18.30
2012,09,20,12,10,18.30
2012,09,20,12,11,18.40
2012,09,20,12,12,18.40
2012,09,20,12,13,18.50
2012,09,20,12,15,18.60
2012,09,20,12,16,18.60
2012,09,20,12,17,18.60
2012,09,20,12,18,18.70
2012,09,20,12,20,18.70
2012,09,20,12,21,18.70
2012,09,20,12,22,18.70
2012,09,20,12,24,18.80
2012,09,20,12,25,18.80
2012,09,20,12,26,18.80
2012,09,20,12,28,18.90
2012,09,20,12,29,18.90
2012,09,20,12,30,19.00
2012,09,20,12,31,19.10
2012,09,20,12,33,19.10
2012,09,20,12,34,19.10
2012,09,20,12,35,19.10
2012,09,20,12,37,19.10
2012,09,20,12,38,19.10
2012,09,20,12,39,19.20
2012,09,20,12,40,19.20
2012,09,20,12,41,19.30
2012,09,20,12,43,19.30
2012,09,20,12,44,19.40
2012,09,20,12,45,19.40
2012,09,20,12,46,19.40
2012,09,20,12,48,19.40
2012,09,20,12,49,19.50
2012,09,20,12,50,19.50
2012,09,20,12,51,19.50
2012,09,20,12,52,19.50
2012,09,20,12,54,19.60
2012,09,20,12,55,19.60
2012,09,20,12,56,19.60
2012,09,20,12,57,19.60
2012,09,20,12,59,19.70
2012,09,20,13,00,19.80
2012,09,20,13,01,19.80
2012,09,20,13,02,19.90
2012,09,20,13,03,19.90
2012,09,20,13,05,19.90
2012,09,20,13,06,19.90
2012,09,20,13,07,20.10
2012,09,20,13,08,20.10
2012,09,20,13,09,20.10
2012,09,20,13,10,20.00
2012,09,20,13,12,19.90
2012,09,20,13,13,19.80
2012,09,20,13,14,19.70
2012,09,20,13,15,19.70
2012,09,20,13,17,19.80
2012,09,20,13,18,19.80
2012,09,20,13,19,19.70
2012,09,20,13,20,19.70
2012,09,20,13,22,19.70
2012,09,20,13,23,19.60
2012,09,20,13,24,19.60
2012,09,20,13,25,19.50
2012,09,20,13,26,19.50
2012,09,20,13,27,19.40
2012,09,20,13,28,19.40
2012,09,20,13,29,19.40
2012,09,20,13,30,19.30
2012,09,20,13,32,19.30
2012,09,20,13,33,19.30
2012,09,20,13,34,19.20
2012,09,20,13,36,19.10
2012,09,20,13,37,19.10
2012,09,20,13,38,19.10
2012,09,20,13,39,19.10
2012,09,20,13,41,19.20
2012,09,20,13,42,19.20
2012,09,20,13,43,19.20
2012,09,20,13,44,19.30
2012,09,20,13,46,19.30
2012,09,20,13,47,19.20
2012,09,20,13,48,19.20
2012,09,20,13,49,19.20
2012,09,20,13,51,19.30
2012,09,20,13,52,19.40
2012,09,20,13,53,19.40
2012,09,20,13,54,19.50
2012,09,20,13,56,19.60
2012,09,20,13,57,19.70
2012,09,20,13,58,19.80
2012,09,20,13,59,19.90
2012,09,20,14,00,19.90
2012,09,20,14,01,20.00
2012,09,20,14,02,20.10
2012,09,20,14,03,20.10
2012,09,20,14,05,20.10
2012,09,20,14,06,20.10
2012,09,20,14,07,20.00
2012,09,20,14,08,20.00
2012,09,20,14,09,20.00
2012,09,20,14,10,20.10
2012,09,20,14,11,20.20
2012,09,20,14,12,20.30
2012,09,20,14,13,20.30
2012,09,20,14,15,20.40
2012,09,20,14,16,20.50
2012,09,20,14,17,20.60
2012,09,20,14,18,20.60
2012,09,20,14,20,20.70
2012,09,20,14,21,20.80
2012,09,20,14,22,20.80
2012,09,20,14,23,20.90
2012,09,20,14,25,20.90
2012,09,20,14,26,21.00
2012,09,20,14,27,21.10
2012,09,20,14,28,21.10
2012,09,20,14,29,21.10
2012,09,20,14,30,21.10
2012,09,20,14,31,21.10
2012,09,20,14,32,21.10
2012,09,20,14,33,21.20
2012,09,20,14,34,21.20
2012,09,20,14,35,21.30
2012,09,20,14,36,21.30
2012,09,20,14,37,21.20
2012,09,20,14,38,21.20
2012,09,20,14,39,21.20
2012,09,20,14,40,21.20
2012,09,20,14,41,21.20
2012,09,20,14,42,21.20
2012,09,20,14,43,21.30
2012,09,20,14,44,21.30
2012,09,20,14,45,21.20
2012,09,20,14,47,21.20
2012,09,20,14,48,21.20
2012,09,20,14,49,21.20
2012,09,20,14,50,21.20
2012,09,20,14,52,21.20
2012,09,20,14,53,21.10
2012,09,20,14,54,21.10
2012,09,20,14,55,21.10
2012,09,20,14,56,21.20
2012,09,20,14,57,21.20
2012,09,20,14,58,21.20
2012,09,20,14,59,21.20
2012,09,20,15,00,21.20
2012,09,20,15,02,21.20
2012,09,20,15,03,21.30
2012,09,20,15,04,21.30
2012,09,20,15,05,21.30
2012,09,20,15,07,21.30
2012,09,20,15,08,21.30
2012,09,20,15,09,21.30
2012,09,20,15,10,21.30
2012,09,20,15,12,21.20
2012,09,20,15,13,21.20
2012,09,20,15,14,21.20
2012,09,20,15,15,21.20
2012,09,20,15,16,21.10
2012,09,20,15,17,21.10
2012,09,20,15,18,21.10
2012,09,20,15,19,21.00
2012,09,20,15,20,21.00
2012,09,20,15,21,21.00
2012,09,20,15,22,21.00
2012,09,20,15,23,20.90
2012,09,20,15,24,21.00
2012,09,20,15,25,21.10
2012,09,20,15,26,21.10
2012,09,20,15,27,21.10
2012,09,20,15,28,21.10
2012,09,20,15,29,21.10
2012,09,20,15,30,21.20
2012,09,20,15,31,21.20
2012,09,20,15,32,21.10
2012,09,20,15,33,21.10
2012,09,20,15,34,20.90
2012,09,20,15,35,20.90
2012,09,20,15,36,20.90
2012,09,20,15,37,20.80
2012,09,20,15,38,20.80
2012,09,20,15,39,20.70
2012,09,20,15,40,20.70
2012,09,20,15,41,20.60
2012,09,20,15,43,20.60
2012,09,20,15,44,20.40
2012,09,20,15,45,20.40
2012,09,20,15,46,20.30
2012,09,20,15,48,20.30
2012,09,20,15,49,20.30
2012,09,20,15,50,20.30
2012,09,20,15,51,20.30
2012,09,20,15,52,20.20
2012,09,20,15,53,20.20
2012,09,20,15,54,20.20
2012,09,20,15,55,20.30
2012,09,20,15,56,20.40
2012,09,20,15,57,20.40
2012,09,20,15,58,20.40
2012,09,20,15,59,20.40
2012,09,20,16,00,20.40
2012,09,20,16,01,20.40
2012,09,20,16,02,20.40
2012,09,20,16,03,20.30
2012,09,20,16,04,20.30
2012,09,20,16,05,20.30
2012,09,20,16,06,20.40
2012,09,20,16,07,20.40
2012,09,20,16,08,20.40
2012,09,20,16,09,20.40
2012,09,20,16,10,20.40
2012,09,20,16,11,20.40
2012,09,20,16,12,20.40
2012,09,20,16,14,20.40
2012,09,20,16,15,20.40
2012,09,20,16,16,20.40
2012,09,20,16,17,20.40
2012,09,20,16,19,20.50
2012,09,20,16,20,20.50
2012,09,20,16,21,20.50
2012,09,20,16,22,20.50
2012,09,20,16,23,20.60
2012,09,20,16,24,20.60
2012,09,20,16,25,20.60
2012,09,20,16,26,20.70
2012,09,20,16,27,20.80
2012,09,20,16,28,20.80
2012,09,20,16,29,20.90
2012,09,20,16,30,20.90
2012,09,20,16,31,20.90
2012,09,20,16,32,20.90
2012,09,20,16,33,20.90
2012,09,20,16,35,20.90
2012,09,20,16,36,20.80
2012,09,20,16,37,20.80
2012,09,20,16,38,20.70
2012,09,20,16,40,20.70
2012,09,20,16,41,20.70
2012,09,20,16,42,20.60
2012,09,20,16,43,20.60
2012,09,20,16,44,20.50
2012,09,20,16,46,20.40
2012,09,20,16,47,20.40
2012,09,20,16,48,20.50
2012,09,20,16,50,20.50
2012,09,20,16,51,20.50
2012,09,20,16,52,20.40
2012,09,20,16,53,20.40
2012,09,20,16,54,20.30
2012,09,20,16,55,20.20
2012,09,20,16,56,20.20
2012,09,20,16,58,20.10
2012,09,20,16,59,20.10
2012,09,20,17,00,20.10
2012,09,20,17,01,20.00
2012,09,20,17,03,20.00
2012,09,20,17,04,20.00
2012,09,20,17,05,20.10
2012,09,20,17,06,20.10
2012,09,20,17,07,20.00
2012,09,20,17,09,19.90
2012,09,20,17,10,19.90
2012,09,20,17,11,19.90
2012,09,20,17,13,19.90
2012,09,20,17,14,20.10
2012,09,20,17,15,20.10
2012,09,20,17,16,20.10
2012,09,20,17,17,20.10
2012,09,20,17,18,20.00
2012,09,20,17,19,20.00
2012,09,20,17,20,20.00
2012,09,20,17,22,19.90
2012,09,20,17,23,20.00
2012,09,20,17,24,19.90
2012,09,20,17,25,19.90
2012,09,20,17,27,19.90
2012,09,20,17,28,19.90
2012,09,20,17,29,20.00
2012,09,20,17,30,20.00
2012,09,20,17,31,20.10
2012,09,20,17,32,20.10
2012,09,20,17,33,20.10
2012,09,20,17,34,20.10
2012,09,20,17,35,20.10
2012,09,20,17,37,20.10
2012,09,20,17,38,20.10
2012,09,20,17,39,20.20
2012,09,20,17,40,20.20
2012,09,20,17,41,20.30
2012,09,20,17,42,20.30
2012,09,20,17,43,20.30
2012,09,20,17,44,20.40
2012,09,20,17,45,20.40
2012,09,20,17,46,20.40
2012,09,20,17,48,20.40
2012,09,20,17,49,20.40
2012,09,20,17,50,20.40
2012,09,20,17,51,20.40
2012,09,20,17,52,20.40
2012,09,20,17,53,20.40
2012,09,20,17,54,20.40
2012,09,20,17,55,20.30
2012,09,20,17,56,20.30
2012,09,20,17,57,20.30
2012,09,20,17,58,20.30
2012,09,20,17,59,20.20
2012,09,20,18,00,20.20
2012,09,20,18,01,20.20
2012,09,20,18,02,20.10
2012,09,20,18,03,20.10
2012,09,20,18,04,20.10
2012,09,20,18,05,20.10
2012,09,20,18,06,20.00
2012,09,20,18,08,20.00
2012,09,20,18,09,19.90
2012,09,20,18,10,19.90
2012,09,20,18,12,19.90
2012,09,20,18,13,19.80
2012,09,20,18,14,19.80
2012,09,20,18,15,19.80
2012,09,20,18,16,19.70
2012,09,20,18,18,19.70
2012,09,20,18,19,19.70
2012,09,20,18,20,19.60
2012,09,20,18,21,19.60
2012,09,20,18,22,19.50
2012,09,20,18,23,19.40
2012,09,20,18,24,19.40
2012,09,20,18,25,19.40
2012,09,20,18,26,19.30
2012,09,20,18,28,19.30
2012,09,20,18,29,19.30
2012,09,20,18,30,19.30
2012,09,20,18,31,19.20
2012,09,20,18,33,19.20
2012,09,20,18,34,19.20
2012,09,20,18,35,19.20
2012,09,20,18,37,19.10
2012,09,20,18,38,19.10
2012,09,20,18,39,19.10
2012,09,20,18,40,19.00
2012,09,20,18,41,18.90
2012,09,20,18,43,18.90
2012,09,20,18,44,18.80
2012,09,20,18,45,18.80
2012,09,20,18,46,18.80
2012,09,20,18,48,18.70
2012,09,20,18,49,18.60
2012,09,20,18,50,18.60
2012,09,20,18,51,18.50
2012,09,20,18,53,18.40
2012,09,20,18,54,18.40
2012,09,20,18,55,18.30
2012,09,20,18,56,18.30
2012,09,20,18,57,18.20
2012,09,20,18,59,18.10
2012,09,20,19,00,18.00
2012,09,20,19,01,17.90
2012,09,20,19,03,17.90
2012,09,20,19,04,17.80
2012,09,20,19,05,17.70
2012,09,20,19,06,17.70
2012,09,20,19,08,17.70
2012,09,20,19,09,17.60
2012,09,20,19,10,17.50
2012,09,20,19,11,17.40
2012,09,20,19,13,17.40
2012,09,20,19,14,17.30
2012,09,20,19,15,17.30
2012,09,20,19,16,17.30
2012,09,20,19,18,17.20
2012,09,20,19,19,17.20
2012,09,20,19,20,17.20
2012,09,20,19,21,17.10
2012,09,20,19,23,17.10
2012,09,20,19,24,17.00
2012,09,20,19,25,16.90
2012,09,20,19,27,16.90
2012,09,20,19,28,16.90
2012,09,20,19,29,16.90
2012,09,20,19,30,16.80
2012,09,20,19,32,16.80
2012,09,20,19,33,16.80
2012,09,20,19,34,16.80
2012,09,20,19,35,16.70
2012,09,20,19,37,16.70
2012,09,20,19,38,16.70
2012,09,20,19,39,16.70
2012,09,20,19,40,16.60
2012,09,20,19,41,16.60
2012,09,20,19,42,16.60
2012,09,20,19,43,16.60
2012,09,20,19,44,16.60
2012,09,20,19,45,16.50
2012,09,20,19,46,16.50
2012,09,20,19,47,16.50
2012,09,20,19,48,16.50
2012,09,20,19,49,16.40
2012,09,20,19,50,16.40
2012,09,20,19,52,16.40
2012,09,20,19,53,16.40
2012,09,20,19,54,16.40
2012,09,20,19,55,16.40
2012,09,20,19,57,16.40
2012,09,20,19,58,16.40
2012,09,20,19,59,16.30
2012,09,20,20,00,16.30
2012,09,20,20,01,16.30
2012,09,20,20,02,16.30
2012,09,20,20,03,16.30